Location: Ceske Budejovice
(48.9830°N, 14.4670°E)
Time: 06:26:21
(UTC+02:00)

ISS - Pass Details

Date: 02 July 2022
Orbit: 412 x 420 km, 51.6° (Epoch: 18 August)

Event Time Altitude Azimuth Distance (km) Brightness Sun altitude
Exits shadow 04:03:42 - 247° (WSW) 1,613 -1.3 -7.8°
Reaches altitude 10° 04:03:59 10° 247° (WSW) 1,496 -1.5 -7.8°
Maximum altitude 04:07:21 86° 161° (SSE) 426 -3.8 -7.4°
Drops below altitude 10° 04:10:44 10° 71° (ENE) 1,507 0.2 -7.1°
Sets 04:12:51 0° 70° (ENE) 2,375 1.3 -6.8°
